Location: Unspecified
(54.1780°N, 0.0000°E)
Time: 11:36:22
(UTC+00:00)

Tiros 1 - Pass Details

Date: 21 June 2019
Orbit: 630 x 664 km, 48.4° (Epoch: 22 July)

Event Time Altitude Azimuth Distance (km) Brightness Sun altitude
Rises 23:24:16 0° 209° (SSW) 2,942 - -12.0°
Reaches altitude 10° 23:27:13 10° 191° (S) 2,029 - -12.0°
Exits shadow 23:29:33 17° 161° (SSE) 1,596 8.5 -12.1°
Maximum altitude 23:30:22 18° 148° (SSE) 1,560 8.6 -12.1°
Drops below altitude 10° 23:33:30 10° 105° (ESE) 2,022 9.5 -12.1°
Sets 23:36:25 0° 87° (E) 2,928 10.5 -12.2°
